Regional Weather Roundup
Issued by NWS Green Bay, WI

Home | Current Version | Previous Version | Text Only | Print | Product List | Glossary On
Versions: 1 2 3 4 5 6 7 8 9 10 11 12 13 14 15 16 17 18 19 20 21 22 23 24 25 26 27 28 29 30 31 32 33 34 35 36 37 38 39 40 41 42 43 44 45 46 47 48 49 50
636
ASUS43 KGRB 281900
RWRGRB

NORTH-CENTRAL AND NORTHEAST WISCONSIN REGIONAL WEATHER ROUNDUP
NATIONAL WEATHER SERVICE GREEN BAY WI
200 PM CDT THU APR 28 2016

WIZ005-009-010>012-018-019-282000-
NORTH CENTRAL WISCONSIN

CITY           SKY/WX    TMP DP  RH WIND       PRES   REMARKS
IRONWOOD       CLOUDY    46  32  57 N13       30.03S
MANITOWISH WTR NOT AVBL
ARBOR VITAE    NOT AVBL
EAGLE RIVER    NOT AVBL
LAND O LAKES   NOT AVBL
RHINELANDER    CLOUDY    52  18  26 SE14      30.02F
PHILLIPS       CLOUDY    48  20  32 E8G16     30.02F
ANTIGO         NOT AVBL
TOMAHAWK       NOT AVBL
MERRILL        NOT AVBL
$$

WIZ013-073-282000-
NORTHEAST WISCONSIN

CITY           SKY/WX    TMP DP  RH WIND       PRES   REMARKS
IRON MOUNTAIN  CLOUDY    52  21  29 SE9       30.04F
MARINETTE      CLOUDY    43  28  56 E16       30.07S
$$

WIZ017-030-035>037-045-282000-
CENTRAL WISCONSIN

CITY           SKY/WX    TMP DP  RH WIND       PRES   REMARKS
MEDFORD        NOT AVBL
WAUSAU         CLOUDY    47  27  45 E10       30.00F
MOSINEE        LGT RAIN  39  36  87 E8        30.03S
MARSHFIELD     LGT RAIN  40  35  83 E17       30.00S
WISC RAPIDS    LGT RAIN  40  37  89 E14G20    30.02R
STEVENS POINT  NOT AVBL
WAUPACA        NOT AVBL
SHAWANO        NOT AVBL
CLINTONVILLE   NOT AVBL
WAUTOMA        NOT AVBL
$$

WIZ038-039-048-051-282000-
FOX VALLEY

CITY           SKY/WX    TMP DP  RH WIND       PRES   REMARKS
NWS GREEN BAY  CLOUDY    44  29  55 NE8       30.04F
APPLETON       CLOUDY    41  30  65 NE12      30.01S
OSHKOSH        CLOUDY    43  31  62 E17       30.01R
FOND DU LAC    LGT RAIN  40  36  86 E15       30.00S
$$

WIZ022-050-052-282000-
EAST CENTRAL WISCONSIN

CITY           SKY/WX    TMP DP  RH WIND       PRES   REMARKS
EPHRAIM        NOT AVBL
STURGEON BAY   CLOUDY    45  27  49 E10       30.08S
MANITOWOC      NOT AVBL
SHEBOYGAN      CLOUDY    40  35  83 E17G25    30.02F
$$

LMZ563-521-522-541>543-282000-
LAKESHORE

STATION/POSITION TIME  TEMP    WIND        PRES    VSBY  WAVE
                       AIR SEA DIR/SP/G                  HT/PER
                 (UTC) (F)     (DEG/KT/KT) (MB)    (MI)  (FT/S)
SHEBOYGAN LKSHOR 1800   38      80/ 25/ 28 1017.3S
KEWAUNEE LKSHORE 1800   41      30/ 10/ 15 1016.7F
ALGOMA MARINA    1815           50/ 14/ 16   N/A
NORTHPORT PIER   1800   41      60/ 14/ 16 1018.3F
N MID LAKE BUOY  1750   40 39   60/ 12/ 14 1018.4F         3/ 4
CHAMBERS ISLAND  1800   42      20/  9/ 12 1018.6R
MENOMINEE LKSHOR 1800   41      20/ 12/ 14 1017.1R
$$




USA.gov is the U.S. government's official web portal to all federal, state and local government web resources and services.